Regional Weather Roundup
Issued by NWS Newport/Morehead, NC

Home | Current Version | Previous Version | Text Only | Print | Product List | Glossary On
Versions: 1 2 3 4 5 6 7 8 9 10 11 12 13 14 15 16 17 18 19 20 21 22 23 24 25 26 27 28 29 30 31 32 33 34 35 36 37 38 39 40 41 42 43 44 45 46 47 48 49 50
000
ASUS42 KMHX 271713
RWRMHX
WEATHER ROUNDUP FOR EASTERN NORTH CAROLINA
NATIONAL WEATHER SERVICE NEWPORT/MOREHEAD CITY NC
100 PM EDT FRI MAY 27 2016

NOTE: "FAIR" INDICATES FEW OR NO CLOUDS BELOW 12,000 FEET
WITH NO SIGNIFICANT WEATHER AND/OR OBSTRUCTIONS TO VISIBILITY

NCZ015>017-031-032-045>047-102-103-271800-
NORTH COAST

CITY           SKY/WX    TMP DP  RH WIND       PRES   REMARKS
EDENTON        PTSUNNY   83  64  51 SW3       30.17F
ELIZABETH CITY SUNNY     83  64  52 VRB6      30.16F
KITTY HAWK     SUNNY     84  57  39 S7        30.17S
MANTEO         NOT AVBL

$$

NCZ045>047-081-094-103-104-271800-
CENTRAL COAST

CITY           SKY/WX    TMP DP  RH WIND       PRES   REMARKS
FRISCO         SUNNY     82  61  48 SE6       30.19S

$$

NCZ095-097-098-100-101-271800-
SOUTHERN COAST

CITY           SKY/WX    TMP DP  RH WIND       PRES   REMARKS
BEAUFORT       SUNNY     80  57  45 SE7       30.17F
CEDAR ISLAND   NOT AVBL
JACKSONVILLE   SUNNY     81  59  47 SE10      30.16F
PINEY ISLAND   SUNNY    N/A N/A N/A E12       30.17F
WILMINGTON     SUNNY     80  59  48 E12G17    30.16F


$$

NCZ011>013-027>030-043-044-078>080-089-090>093-098-271800-
COASTAL PLAIN

CITY           SKY/WX    TMP DP  RH WIND       PRES   REMARKS
AHOSKIE        SUNNY     82  62  51 S5        30.14F
CLINTON        SUNNY     85  65  52 S6        30.15F
ELIZABETHTOWN  SUNNY     83  60  44 SE8       30.15F
GOLDSBORO      MOSUNNY   85  63  47 VRB2      30.13F
GREENVILLE     SUNNY     84  63  48 SE8       30.16F
HAVELOCK       MOSUNNY   82  60  47 MISG      30.17F
KENANSVILLE    SUNNY     83  60  45 CALM      30.16F
KINSTON        SUNNY     84  59  42 CALM      30.16F
NEW BERN       SUNNY     82  60  47 E10       30.17F
RICHLANDS      MOSUNNY   82  64  54 S8        30.16F
ROCKY MOUNT    SUNNY     84  63  49 VRB5      30.15F
WASHINGTON     SUNNY     82  60  47 S6        30.16F
WHITEVILLE     MOSUNNY   83  62  48 NE7       30.14F

$$

AMZ130-135-150-152-154-156-158-170-250-252-270-ANZ085-086-088-633-658-670-271800-
MARINE OBSERVATIONS

STATION/POSITION TIME  TEMP    WIND        PRES    WAVE   SWELL
                       AIR SEA DIR/SP/G            HT/PER HT/PER
                 (UTC) (F)     (DEG/KT/KT) (MB)    (FT/S) (FT/S)
CHESAPEAKE LIGHT 1700   70     170/ 20/ 21 1021.3
64 E VA BEACH    1650   66 61  180/  4/  6 1022.4    2/ 7   2/ 7
DUCK             1600   71 61  130/  8/  9 1021.4
2 E DUCK         1611      65                N/A     1/ 8
OREGON INLET     1600   76 74  180/  9/ 10 1022.2
13E OREGON INLT  1700      71                N/A     2/ 8   2/ 8
HATTERAS CG      1600   76 72  140/  5/  6 1021.8
DIAMOND BUOY     1650   77 82  130/ 10/ 12 1022.1    2/ 8   2/ 8
CAPE LOOKOUT     1700   75     100/  6/  7 1021.4
BEAUFORT LAB     1600   76 72  120/ 10/ 12 1021.3
30 SE NEW RVR IN 1625      75                N/A     2/ 8
27 SE WRIGHTSVLE 1608   76 74   60/  8/ 12 1021.3
5 SE WRIGHTSVLE  1608   76 74  120/  8/ 10 1022.5
225 S CAPE HAT   1650   77 78   70/ 17/ 21 1019.1    4/ 5   2/ 9
41 SE CHARLESTON 1650   76 77   50/ 14/ 16 1020.0    3/ 8   2/ 8

$$




USA.gov is the U.S. government's official web portal to all federal, state and local government web resources and services.